Time,TemperatureF,DewpointF,PressureIn,WindDirection,WindDirectionDegrees,WindSpeedMPH,WindSpeedGustMPH,Humidity,HourlyPrecipIn,Conditions,Clouds,dailyrainin,SoftwareType,DateUTC
2012-10-12 00:04:00,41.6,41.0,0.00,North,354,17.2,-999.0,100,0.00,,,-99.99,,2012-10-12 08:04:00,
2012-10-12 00:09:00,41.5,41.5,0.00,North,10,15.0,-999.0,100,0.00,,,-99.99,,2012-10-12 08:09:00,
2012-10-12 00:14:00,41.4,41.0,0.00,North,350,19.0,-999.0,100,0.00,,,-99.99,,2012-10-12 08:14:00,
2012-10-12 00:19:00,41.6,41.0,0.00,North,351,17.5,-999.0,100,0.00,,,-99.99,,2012-10-12 08:19:00,
2012-10-12 00:24:00,41.5,41.5,0.00,North,0,20.2,-999.0,100,0.00,,,-99.99,,2012-10-12 08:24:00,
2012-10-12 00:29:00,41.5,41.5,0.00,North,0,17.9,-999.0,100,0.01,,,-99.99,,2012-10-12 08:29:00,
2012-10-12 00:34:00,41.6,41.5,0.00,North,2,14.3,-999.0,100,0.01,,,-99.99,,2012-10-12 08:34:00,
2012-10-12 00:39:00,41.4,41.4,0.00,North,1,21.4,-999.0,100,0.01,,,-99.99,,2012-10-12 08:39:00,
2012-10-12 00:44:00,41.5,41.0,0.00,North,351,16.6,-999.0,100,0.01,,,-99.99,,2012-10-12 08:44:00,
2012-10-12 00:49:00,41.4,41.4,0.00,North,7,19.5,-999.0,100,0.01,,,-99.99,,2012-10-12 08:49:00,
2012-10-12 00:55:00,41.4,41.0,0.00,NNW,348,19.5,-999.0,100,0.01,,,-99.99,,2012-10-12 08:55:00,
2012-10-12 01:00:00,41.4,41.3,0.00,North,10,17.9,-999.0,100,0.00,,,-99.99,,2012-10-12 09:00:00,
2012-10-12 01:05:00,41.5,41.5,0.00,North,0,21.4,-999.0,100,0.00,,,-99.99,,2012-10-12 09:05:00,
2012-10-12 01:10:00,41.5,41.5,0.00,North,10,25.3,-999.0,100,0.00,,,-99.99,,2012-10-12 09:10:00,
2012-10-12 01:15:00,41.6,41.6,0.00,North,0,20.2,-999.0,100,0.00,,,-99.99,,2012-10-12 09:15:00,
2012-10-12 01:20:00,41.6,41.5,0.00,North,9,18.2,-999.0,100,0.00,,,-99.99,,2012-10-12 09:20:00,
2012-10-12 01:25:00,41.6,41.0,0.00,NNW,341,16.8,-999.0,100,0.01,,,-99.99,,2012-10-12 09:25:00,
2012-10-12 01:30:00,41.4,41.4,0.00,North,0,24.4,-999.0,100,0.01,,,-99.99,,2012-10-12 09:30:00,
2012-10-12 01:36:00,41.5,41.0,0.00,NNW,342,22.0,-999.0,100,0.01,,,-99.99,,2012-10-12 09:36:00,
2012-10-12 01:41:00,41.6,41.6,0.00,North,1,19.0,-999.0,100,0.01,,,-99.99,,2012-10-12 09:41:00,
2012-10-12 01:46:00,41.6,41.5,0.00,North,1,16.8,-999.0,100,0.01,,,-99.99,,2012-10-12 09:46:00,
2012-10-12 01:51:00,41.6,41.5,0.00,NNE,22,21.5,-999.0,100,0.01,,,-99.99,,2012-10-12 09:51:00,
2012-10-12 01:56:00,41.8,41.8,0.00,North,9,22.9,-999.0,100,0.01,,,-99.99,,2012-10-12 09:56:00,
2012-10-12 02:02:00,41.7,41.6,0.00,North,9,21.8,-999.0,100,0.00,,,-99.99,,2012-10-12 10:02:00,
2012-10-12 02:07:00,41.7,41.7,0.00,North,0,20.4,-999.0,100,0.00,,,-99.99,,2012-10-12 10:07:00,
2012-10-12 02:12:00,41.6,41.6,0.00,NNE,13,23.5,-999.0,100,0.00,,,-99.99,,2012-10-12 10:12:00,
2012-10-12 02:17:00,41.6,41.6,0.00,North,4,18.6,-999.0,100,0.00,,,-99.99,,2012-10-12 10:17:00,
2012-10-12 02:23:00,41.6,41.6,0.00,North,4,26.1,-999.0,100,0.00,,,-99.99,,2012-10-12 10:23:00,
2012-10-12 02:28:00,41.6,41.0,0.00,NNW,346,16.2,-999.0,100,0.00,,,-99.99,,2012-10-12 10:28:00,
2012-10-12 02:34:00,41.5,41.5,0.00,NNE,21,21.9,-999.0,100,0.00,,,-99.99,,2012-10-12 10:34:00,
2012-10-12 02:39:00,41.7,41.6,0.00,North,6,21.6,-999.0,100,0.00,,,-99.99,,2012-10-12 10:39:00,
2012-10-12 02:44:00,41.5,41.5,0.00,North,0,19.3,-999.0,100,0.00,,,-99.99,,2012-10-12 10:44:00,
2012-10-12 02:49:00,41.6,41.5,0.00,North,0,21.4,-999.0,100,0.00,,,-99.99,,2012-10-12 10:49:00,
2012-10-12 02:54:00,41.4,41.4,0.00,North,0,21.7,-999.0,100,0.00,,,-99.99,,2012-10-12 10:54:00,
2012-10-12 02:59:00,41.6,41.6,0.00,North,9,25.0,-999.0,100,0.00,,,-99.99,,2012-10-12 10:59:00,
2012-10-12 03:04:00,41.6,41.5,0.00,North,1,16.8,-999.0,100,0.00,,,-99.99,,2012-10-12 11:04:00,
2012-10-12 03:09:00,41.7,41.6,0.00,North,7,20.1,-999.0,100,0.00,,,-99.99,,2012-10-12 11:09:00,
2012-10-12 03:14:00,41.7,41.6,0.00,North,6,21.4,-999.0,100,0.00,,,-99.99,,2012-10-12 11:14:00,
2012-10-12 03:19:00,41.7,41.7,0.00,North,8,17.3,-999.0,100,0.00,,,-99.99,,2012-10-12 11:19:00,
2012-10-12 03:24:00,41.6,41.0,0.00,NNW,348,23.2,-999.0,100,0.00,,,-99.99,,2012-10-12 11:24:00,
2012-10-12 03:29:00,41.6,41.6,0.00,North,1,22.4,-999.0,100,0.00,,,-99.99,,2012-10-12 11:29:00,
2012-10-12 03:34:00,41.7,41.6,0.00,North,5,18.0,-999.0,100,0.00,,,-99.99,,2012-10-12 11:34:00,
2012-10-12 03:39:00,41.8,41.8,0.00,North,3,22.7,-999.0,100,0.00,,,-99.99,,2012-10-12 11:39:00,
2012-10-12 03:44:00,41.6,41.6,0.00,NNE,13,22.4,-999.0,100,0.00,,,-99.99,,2012-10-12 11:44:00,
2012-10-12 03:49:00,41.6,41.6,0.00,North,9,23.1,-999.0,100,0.00,,,-99.99,,2012-10-12 11:49:00,
2012-10-12 03:54:00,41.6,41.6,0.00,NNE,13,22.2,-999.0,100,0.00,,,-99.99,,2012-10-12 11:54:00,
2012-10-12 03:59:00,41.6,41.6,0.00,North,9,19.2,-999.0,100,0.00,,,-99.99,,2012-10-12 11:59:00,
2012-10-12 04:04:00,41.7,41.6,0.00,North,5,17.2,-999.0,100,0.00,,,-99.99,,2012-10-12 12:04:00,
2012-10-12 04:09:00,41.7,41.6,0.00,North,3,20.8,-999.0,100,0.00,,,-99.99,,2012-10-12 12:09:00,
2012-10-12 04:14:00,41.6,41.6,0.00,North,0,22.8,-999.0,100,0.00,,,-99.99,,2012-10-12 12:14:00,
2012-10-12 04:19:00,41.6,41.5,0.00,North,0,23.4,-999.0,100,0.00,,,-99.99,,2012-10-12 12:19:00,
2012-10-12 04:24:00,41.5,41.5,0.00,North,11,23.9,-999.0,100,0.00,,,-99.99,,2012-10-12 12:24:00,
2012-10-12 04:29:00,41.5,41.5,0.00,NNE,24,27.0,-999.0,100,0.00,,,-99.99,,2012-10-12 12:29:00,
2012-10-12 04:34:00,41.5,41.5,0.00,NNE,14,28.0,-999.0,100,0.00,,,-99.99,,2012-10-12 12:34:00,
2012-10-12 04:39:00,41.4,41.0,0.00,North,353,18.9,-999.0,100,0.00,,,-99.99,,2012-10-12 12:39:00,
2012-10-12 04:45:00,41.4,41.4,0.00,North,2,18.3,-999.0,100,0.00,,,-99.99,,2012-10-12 12:45:00,
2012-10-12 04:50:00,41.4,41.3,0.00,North,2,19.4,-999.0,100,0.00,,,-99.99,,2012-10-12 12:50:00,
2012-10-12 04:55:00,41.4,41.3,0.00,NNE,17,27.0,-999.0,100,0.00,,,-99.99,,2012-10-12 12:55:00,
2012-10-12 05:00:00,41.4,41.0,0.00,North,349,17.0,-999.0,100,0.00,,,-99.99,,2012-10-12 13:00:00,
2012-10-12 05:05:00,41.2,41.2,0.00,North,0,19.4,-999.0,100,0.01,,,-99.99,,2012-10-12 13:05:00,
2012-10-12 05:10:00,41.2,41.0,0.00,North,350,19.0,-999.0,100,0.02,,,-99.99,,2012-10-12 13:10:00,
2012-10-12 05:15:00,41.3,41.3,0.00,North,8,24.0,-999.0,100,0.02,,,-99.99,,2012-10-12 13:15:00,
2012-10-12 05:20:00,41.3,41.3,0.00,North,1,25.8,-999.0,100,0.02,,,-99.99,,2012-10-12 13:20:00,
2012-10-12 05:25:00,41.2,41.1,0.00,North,0,16.7,-999.0,100,0.02,,,-99.99,,2012-10-12 13:25:00,
2012-10-12 05:30:00,41.0,41.0,0.00,North,6,21.3,-999.0,100,0.02,,,-99.99,,2012-10-12 13:30:00,
2012-10-12 05:35:00,40.8,40.0,0.00,NNW,341,24.0,-999.0,100,0.02,,,-99.99,,2012-10-12 13:35:00,
2012-10-12 05:40:00,41.0,41.0,0.00,North,1,23.1,-999.0,100,0.02,,,-99.99,,2012-10-12 13:40:00,
2012-10-12 05:45:00,41.0,41.0,0.00,North,0,22.8,-999.0,100,0.02,,,-99.99,,2012-10-12 13:45:00,
2012-10-12 05:50:00,41.0,41.0,0.00,North,10,24.1,-999.0,100,0.02,,,-99.99,,2012-10-12 13:50:00,
2012-10-12 05:55:00,40.9,40.0,0.00,NNW,346,25.7,-999.0,100,0.02,,,-99.99,,2012-10-12 13:55:00,
2012-10-12 06:00:00,40.8,40.0,0.00,NNW,344,21.0,-999.0,100,0.00,,,-99.99,,2012-10-12 14:00:00,
2012-10-12 06:05:00,40.8,40.0,0.00,North,349,21.6,-999.0,100,0.00,,,-99.99,,2012-10-12 14:05:00,
2012-10-12 06:10:00,40.7,40.7,0.00,North,4,26.9,-999.0,100,0.00,,,-99.99,,2012-10-12 14:10:00,
2012-10-12 06:15:00,40.7,40.0,0.00,North,352,26.3,-999.0,100,0.00,,,-99.99,,2012-10-12 14:15:00,
2012-10-12 06:20:00,40.8,40.0,0.00,North,350,24.3,-999.0,100,0.00,,,-99.99,,2012-10-12 14:20:00,
2012-10-12 06:25:00,40.8,40.8,0.00,North,0,17.6,-999.0,100,0.00,,,-99.99,,2012-10-12 14:25:00,
2012-10-12 06:30:00,40.7,40.0,0.00,North,354,22.8,-999.0,100,0.00,,,-99.99,,2012-10-12 14:30:00,
2012-10-12 06:35:00,40.6,40.0,0.00,ESE,117,22.2,-999.0,100,0.00,,,-99.99,,2012-10-12 14:35:00,
2012-10-12 06:40:00,40.5,40.5,0.00,North,2,26.8,-999.0,100,0.00,,,-99.99,,2012-10-12 14:40:00,
2012-10-12 06:45:00,40.5,40.5,0.00,North,0,26.7,-999.0,100,0.00,,,-99.99,,2012-10-12 14:45:00,
2012-10-12 06:50:00,40.5,40.0,0.00,NNW,343,24.9,-999.0,100,0.00,,,-99.99,,2012-10-12 14:50:00,
2012-10-12 06:55:00,40.5,40.0,0.00,North,349,20.4,-999.0,100,0.00,,,-99.99,,2012-10-12 14:55:00,
2012-10-12 07:00:00,40.5,40.0,0.00,NNW,344,26.6,-999.0,100,0.00,,,-99.99,,2012-10-12 15:00:00,
2012-10-12 07:05:00,40.5,40.0,0.00,North,351,18.8,-999.0,100,0.00,,,-99.99,,2012-10-12 15:05:00,
2012-10-12 07:10:00,40.5,40.0,0.00,North,350,25.9,-999.0,100,0.00,,,-99.99,,2012-10-12 15:10:00,
2012-10-12 07:15:00,40.5,40.0,0.00,NNW,348,23.7,-999.0,100,0.00,,,-99.99,,2012-10-12 15:15:00,
2012-10-12 07:20:00,40.4,40.0,0.00,North,352,36.0,-999.0,100,0.00,,,-99.99,,2012-10-12 15:20:00,
2012-10-12 07:25:00,40.3,40.0,0.00,NNW,346,30.6,-999.0,100,0.00,,,-99.99,,2012-10-12 15:25:00,
2012-10-12 07:30:00,40.4,40.0,0.00,NNW,347,24.1,-999.0,100,0.00,,,-99.99,,2012-10-12 15:30:00,
2012-10-12 07:35:00,40.5,40.4,0.00,North,0,21.7,-999.0,100,0.00,,,-99.99,,2012-10-12 15:35:00,
2012-10-12 07:40:00,40.4,40.0,0.00,NNW,342,20.5,-999.0,100,0.00,,,-99.99,,2012-10-12 15:40:00,
2012-10-12 07:45:00,40.5,40.0,0.00,NNW,346,19.7,-999.0,100,0.00,,,-99.99,,2012-10-12 15:45:00,
2012-10-12 07:50:00,40.4,40.0,0.00,North,353,21.5,-999.0,100,0.00,,,-99.99,,2012-10-12 15:50:00,
2012-10-12 07:55:00,40.6,40.0,0.00,North,351,31.3,-999.0,100,0.00,,,-99.99,,2012-10-12 15:55:00,
2012-10-12 08:00:00,40.7,40.0,0.00,NNW,338,21.6,-999.0,100,0.00,,,-99.99,,2012-10-12 16:00:00,
2012-10-12 08:05:00,40.5,40.0,0.00,North,349,24.3,-999.0,100,0.00,,,-99.99,,2012-10-12 16:05:00,
2012-10-12 08:11:00,40.6,40.5,0.00,North,0,22.2,-999.0,100,0.00,,,-99.99,,2012-10-12 16:11:00,
2012-10-12 08:16:00,40.7,40.0,0.00,North,354,34.2,-999.0,100,0.00,,,-99.99,,2012-10-12 16:16:00,
2012-10-12 08:21:00,40.7,40.6,0.00,North,0,28.6,-999.0,100,0.00,,,-99.99,,2012-10-12 16:21:00,
2012-10-12 08:26:00,40.7,40.0,0.00,NNW,346,22.4,-999.0,100,0.00,,,-99.99,,2012-10-12 16:26:00,
2012-10-12 08:31:00,40.5,40.0,0.00,North,350,23.2,-999.0,100,0.00,,,-99.99,,2012-10-12 16:31:00,
2012-10-12 08:36:00,40.8,40.0,0.00,NNW,345,25.2,-999.0,100,0.00,,,-99.99,,2012-10-12 16:36:00,
2012-10-12 08:41:00,40.6,40.0,0.00,North,353,27.4,-999.0,100,0.00,,,-99.99,,2012-10-12 16:41:00,
2012-10-12 08:46:00,40.8,40.0,0.00,North,351,24.4,-999.0,100,0.00,,,-99.99,,2012-10-12 16:46:00,
2012-10-12 08:51:00,40.8,40.0,0.00,North,353,24.5,-999.0,100,0.00,,,-99.99,,2012-10-12 16:51:00,
2012-10-12 08:56:00,40.8,40.7,0.00,North,0,22.2,-999.0,100,0.00,,,-99.99,,2012-10-12 16:56:00,
2012-10-12 09:01:00,40.8,40.8,0.00,North,2,25.7,-999.0,100,0.00,,,-99.99,,2012-10-12 17:01:00,
2012-10-12 09:06:00,41.0,41.0,0.00,North,0,22.5,-999.0,100,0.00,,,-99.99,,2012-10-12 17:06:00,
2012-10-12 09:11:00,40.8,40.0,0.00,NNW,345,18.9,-999.0,100,0.00,,,-99.99,,2012-10-12 17:11:00,
2012-10-12 09:16:00,41.0,40.0,0.00,NNW,343,20.9,-999.0,100,0.00,,,-99.99,,2012-10-12 17:16:00,
2012-10-12 09:21:00,40.9,40.0,0.00,NNW,346,27.0,-999.0,100,0.00,,,-99.99,,2012-10-12 17:21:00,
2012-10-12 09:26:00,40.9,40.8,0.00,North,0,24.2,-999.0,100,0.00,,,-99.99,,2012-10-12 17:26:00,
2012-10-12 09:31:00,41.0,41.0,0.00,East,100,21.9,-999.0,100,0.00,,,-99.99,,2012-10-12 17:31:00,
2012-10-12 09:36:00,40.8,40.7,0.00,North,8,22.5,-999.0,100,0.00,,,-99.99,,2012-10-12 17:36:00,
2012-10-12 09:41:00,41.0,41.0,0.00,North,0,23.9,-999.0,100,0.00,,,-99.99,,2012-10-12 17:41:00,
2012-10-12 09:46:00,40.9,40.8,0.00,North,4,24.7,-999.0,100,0.00,,,-99.99,,2012-10-12 17:46:00,
2012-10-12 09:51:00,40.9,40.0,0.00,NNW,346,24.6,-999.0,100,0.00,,,-99.99,,2012-10-12 17:51:00,
2012-10-12 09:56:00,41.0,41.0,0.00,North,350,23.4,-999.0,100,0.00,,,-99.99,,2012-10-12 17:56:00,
2012-10-12 10:01:00,40.9,40.0,0.00,NNW,345,23.6,-999.0,100,0.00,,,-99.99,,2012-10-12 18:01:00,
2012-10-12 10:06:00,40.9,40.0,0.00,NNW,338,25.9,-999.0,100,0.00,,,-99.99,,2012-10-12 18:06:00,
2012-10-12 10:11:00,40.9,40.8,0.00,North,0,19.4,-999.0,100,0.00,,,-99.99,,2012-10-12 18:11:00,
2012-10-12 10:16:00,40.8,40.0,0.00,NNW,342,24.4,-999.0,100,0.00,,,-99.99,,2012-10-12 18:16:00,
2012-10-12 10:21:00,40.8,40.0,0.00,North,354,23.9,-999.0,100,0.00,,,-99.99,,2012-10-12 18:21:00,
2012-10-12 10:26:00,40.7,40.0,0.00,North,350,26.7,-999.0,100,0.00,,,-99.99,,2012-10-12 18:26:00,
2012-10-12 10:31:00,40.7,40.0,0.00,North,352,25.3,-999.0,100,0.01,,,-99.99,,2012-10-12 18:31:00,
2012-10-12 10:36:00,40.7,40.0,0.00,North,350,30.3,-999.0,100,0.01,,,-99.99,,2012-10-12 18:36:00,
2012-10-12 10:41:00,40.8,40.0,0.00,NNW,346,23.4,-999.0,100,0.01,,,-99.99,,2012-10-12 18:41:00,
2012-10-12 10:46:00,40.8,40.7,0.00,North,0,22.8,-999.0,100,0.01,,,-99.99,,2012-10-12 18:46:00,
2012-10-12 10:51:00,40.7,40.0,0.00,NNW,348,23.4,-999.0,100,0.01,,,-99.99,,2012-10-12 18:51:00,
2012-10-12 10:56:00,40.7,40.0,0.00,NNW,343,17.6,-999.0,100,0.01,,,-99.99,,2012-10-12 18:56:00,
2012-10-12 11:01:00,40.6,40.5,0.00,North,0,22.4,-999.0,100,0.00,,,-99.99,,2012-10-12 19:01:00,
2012-10-12 11:06:00,40.5,40.0,0.00,North,349,14.6,-999.0,100,0.02,,,-99.99,,2012-10-12 19:06:00,
2012-10-12 11:11:00,40.5,40.0,0.00,North,353,20.2,-999.0,100,0.03,,,-99.99,,2012-10-12 19:11:00,
2012-10-12 11:16:00,40.6,40.0,0.00,NNW,347,26.0,-999.0,100,0.03,,,-99.99,,2012-10-12 19:16:00,
2012-10-12 11:21:00,40.5,40.0,0.00,NNW,348,27.4,-999.0,100,0.04,,,-99.99,,2012-10-12 19:21:00,
2012-10-12 11:26:00,40.5,40.0,0.00,North,349,24.4,-999.0,100,0.07,,,-99.99,,2012-10-12 19:26:00,
2012-10-12 11:32:00,40.5,40.0,0.00,North,349,20.2,-999.0,100,0.09,,,-99.99,,2012-10-12 19:32:00,
2012-10-12 11:37:00,40.7,40.0,0.00,NNW,345,20.5,-999.0,100,0.11,,,-99.99,,2012-10-12 19:37:00,
2012-10-12 11:42:00,40.5,40.0,0.00,North,350,17.2,-999.0,100,0.12,,,-99.99,,2012-10-12 19:42:00,
2012-10-12 11:47:00,40.6,40.0,0.00,NNW,337,23.0,-999.0,100,0.14,,,-99.99,,2012-10-12 19:47:00,
2012-10-12 11:52:00,40.7,40.0,0.00,North,353,24.3,-999.0,100,0.15,,,-99.99,,2012-10-12 19:52:00,
2012-10-12 11:57:00,40.6,40.0,0.00,NNW,346,18.9,-999.0,100,0.16,,,-99.99,,2012-10-12 19:57:00,
2012-10-12 12:02:00,40.6,40.0,0.00,NNW,336,15.6,-999.0,100,0.00,,,-99.99,,2012-10-12 20:02:00,
2012-10-12 12:07:00,40.6,40.0,0.00,NNW,346,19.1,-999.0,100,0.02,,,-99.99,,2012-10-12 20:07:00,
2012-10-12 12:12:00,40.7,40.0,0.00,NNW,342,14.4,-999.0,100,0.04,,,-99.99,,2012-10-12 20:12:00,
2012-10-12 12:17:00,40.5,40.5,0.00,North,0,15.1,-999.0,100,0.06,,,-99.99,,2012-10-12 20:17:00,
2012-10-12 12:22:00,40.8,40.0,0.00,NNW,347,14.8,-999.0,100,0.08,,,-99.99,,2012-10-12 20:22:00,
2012-10-12 12:27:00,40.7,40.0,0.00,NNW,345,19.5,-999.0,100,0.11,,,-99.99,,2012-10-12 20:27:00,
2012-10-12 12:32:00,40.9,40.0,0.00,North,354,22.0,-999.0,100,0.14,,,-99.99,,2012-10-12 20:32:00,
2012-10-12 12:37:00,40.8,40.0,0.00,North,349,24.9,-999.0,100,0.17,,,-99.99,,2012-10-12 20:37:00,
2012-10-12 12:43:00,40.8,40.0,0.00,NNW,348,23.7,-999.0,100,0.19,,,-99.99,,2012-10-12 20:43:00,
2012-10-12 12:48:00,40.7,40.0,0.00,North,351,27.6,-999.0,100,0.20,,,-99.99,,2012-10-12 20:48:00,
2012-10-12 12:53:00,40.8,40.0,0.00,NNW,347,21.9,-999.0,100,0.21,,,-99.99,,2012-10-12 20:53:00,
2012-10-12 12:58:00,40.9,40.0,0.00,North,349,18.3,-999.0,100,0.22,,,-99.99,,2012-10-12 20:58:00,
2012-10-12 13:03:00,40.8,40.0,0.00,NNW,340,13.7,-999.0,100,0.01,,,-99.99,,2012-10-12 21:03:00,
2012-10-12 13:08:00,40.8,40.0,0.00,NNW,342,20.8,-999.0,100,0.02,,,-99.99,,2012-10-12 21:08:00,
2012-10-12 13:13:00,40.7,40.0,0.00,NNW,345,22.0,-999.0,100,0.03,,,-99.99,,2012-10-12 21:13:00,
2012-10-12 13:18:00,40.7,40.0,0.00,NNW,335,19.2,-999.0,100,0.04,,,-99.99,,2012-10-12 21:18:00,
2012-10-12 13:23:00,40.7,40.0,0.00,North,350,16.8,-999.0,100,0.08,,,-99.99,,2012-10-12 21:23:00,
2012-10-12 13:28:00,40.7,40.0,0.00,North,350,24.3,-999.0,100,0.11,,,-99.99,,2012-10-12 21:28:00,
2012-10-12 13:33:00,40.8,40.8,0.00,North,6,19.2,-999.0,100,0.14,,,-99.99,,2012-10-12 21:33:00,
2012-10-12 13:38:00,40.8,40.8,0.00,North,0,25.5,-999.0,100,0.16,,,-99.99,,2012-10-12 21:38:00,
2012-10-12 13:43:00,40.8,40.0,0.00,NNW,347,19.3,-999.0,100,0.18,,,-99.99,,2012-10-12 21:43:00,
2012-10-12 13:48:00,40.9,40.0,0.00,NNW,341,18.5,-999.0,100,0.19,,,-99.99,,2012-10-12 21:48:00,
2012-10-12 13:53:00,40.8,40.0,0.00,North,350,26.6,-999.0,100,0.20,,,-99.99,,2012-10-12 21:53:00,
2012-10-12 13:58:00,40.7,40.0,0.00,NNW,338,16.5,-999.0,100,0.21,,,-99.99,,2012-10-12 21:58:00,
2012-10-12 14:03:00,40.8,40.0,0.00,North,349,18.6,-999.0,100,0.00,,,-99.99,,2012-10-12 22:03:00,
2012-10-12 14:08:00,40.7,40.6,0.00,North,3,22.5,-999.0,100,0.01,,,-99.99,,2012-10-12 22:08:00,
2012-10-12 14:13:00,40.7,40.0,0.00,NNW,345,16.9,-999.0,100,0.01,,,-99.99,,2012-10-12 22:13:00,
2012-10-12 14:18:00,40.6,40.0,0.00,North,352,18.4,-999.0,100,0.02,,,-99.99,,2012-10-12 22:18:00,
2012-10-12 14:23:00,40.8,40.7,0.00,North,0,18.8,-999.0,100,0.02,,,-99.99,,2012-10-12 22:23:00,
2012-10-12 14:28:00,40.6,40.0,0.00,NNW,346,18.2,-999.0,100,0.03,,,-99.99,,2012-10-12 22:28:00,
2012-10-12 14:33:00,40.8,40.0,0.00,NNW,342,24.5,-999.0,100,0.03,,,-99.99,,2012-10-12 22:33:00,
2012-10-12 14:40:00,40.8,40.0,0.00,NNW,330,19.9,-999.0,100,0.04,,,-99.99,,2012-10-12 22:40:00,
2012-10-12 14:45:00,40.5,40.0,0.00,NNW,347,21.7,-999.0,100,0.05,,,-99.99,,2012-10-12 22:45:00,
2012-10-12 14:50:00,40.4,40.0,0.00,North,350,23.1,-999.0,100,0.07,,,-99.99,,2012-10-12 22:50:00,
2012-10-12 14:55:00,40.5,40.0,0.00,North,352,23.4,-999.0,100,0.10,,,-99.99,,2012-10-12 22:55:00,
2012-10-12 15:00:00,40.4,40.0,0.00,NNW,344,22.1,-999.0,100,0.00,,,-99.99,,2012-10-12 23:00:00,
2012-10-12 15:05:00,40.2,40.2,0.00,North,0,27.1,-999.0,100,0.02,,,-99.99,,2012-10-12 23:05:00,
2012-10-12 15:10:00,40.3,40.3,0.00,North,7,25.1,-999.0,100,0.03,,,-99.99,,2012-10-12 23:10:00,
2012-10-12 15:15:00,40.2,40.0,0.00,NNW,341,19.2,-999.0,100,0.04,,,-99.99,,2012-10-12 23:15:00,
2012-10-12 15:20:00,40.2,40.0,0.00,NNW,341,24.1,-999.0,100,0.06,,,-99.99,,2012-10-12 23:20:00,
2012-10-12 15:25:00,40.1,40.0,0.00,NNW,348,29.0,-999.0,100,0.08,,,-99.99,,2012-10-12 23:25:00,
2012-10-12 15:30:00,40.2,40.0,0.00,NNW,347,31.1,-999.0,100,0.11,,,-99.99,,2012-10-12 23:30:00,
2012-10-12 15:35:00,40.2,40.0,0.00,NNW,346,19.2,-999.0,100,0.14,,,-99.99,,2012-10-12 23:35:00,
2012-10-12 15:41:00,40.0,40.0,0.00,WNW,296,21.6,-999.0,100,0.17,,,-99.99,,2012-10-12 23:41:00,
2012-10-12 15:46:00,40.1,40.0,0.00,North,349,28.9,-999.0,100,0.20,,,-99.99,,2012-10-12 23:46:00,
2012-10-12 15:51:00,39.7,39.0,0.00,NNW,342,22.4,-999.0,100,0.23,,,-99.99,,2012-10-12 23:51:00,
2012-10-12 15:56:00,39.9,39.0,0.00,NNW,345,28.8,-999.0,100,0.25,,,-99.99,,2012-10-12 23:56:00,
2012-10-12 16:01:00,40.0,39.0,0.00,NNW,340,24.2,-999.0,100,0.00,,,-99.99,,2012-10-13 00:01:00,
2012-10-12 16:06:00,40.0,39.9,0.00,East,87,29.6,-999.0,100,0.03,,,-99.99,,2012-10-13 00:06:00,
2012-10-12 16:11:00,39.9,39.0,0.00,NNW,342,23.0,-999.0,100,0.06,,,-99.99,,2012-10-13 00:11:00,
2012-10-12 16:16:00,40.0,39.0,0.00,NNW,339,25.2,-999.0,100,0.08,,,-99.99,,2012-10-13 00:16:00,
2012-10-12 16:21:00,40.0,40.0,0.00,NNW,332,22.1,-999.0,100,0.12,,,-99.99,,2012-10-13 00:21:00,
2012-10-12 16:26:00,39.9,39.0,0.00,NNW,347,20.7,-999.0,100,0.16,,,-99.99,,2012-10-13 00:26:00,
2012-10-12 16:31:00,39.9,39.9,0.00,North,0,24.2,-999.0,100,0.19,,,-99.99,,2012-10-13 00:31:00,
2012-10-12 16:36:00,39.8,39.0,0.00,NNW,348,17.9,-999.0,100,0.23,,,-99.99,,2012-10-13 00:36:00,
2012-10-12 16:41:00,39.9,39.0,0.00,NNW,346,22.1,-999.0,100,0.27,,,-99.99,,2012-10-13 00:41:00,
2012-10-12 16:46:00,39.7,39.0,0.00,North,351,18.0,-999.0,100,0.32,,,-99.99,,2012-10-13 00:46:00,
2012-10-12 16:51:00,39.7,39.0,0.00,NNW,331,18.6,-999.0,100,0.35,,,-99.99,,2012-10-13 00:51:00,
2012-10-12 16:56:00,39.6,39.0,0.00,North,351,23.8,-999.0,100,0.38,,,-99.99,,2012-10-13 00:56:00,
2012-10-12 17:01:00,39.6,39.0,0.00,NNW,332,18.5,-999.0,100,0.01,,,-99.99,,2012-10-13 01:01:00,
2012-10-12 17:06:00,39.7,39.0,0.00,NNW,340,23.5,-999.0,100,0.03,,,-99.99,,2012-10-13 01:06:00,
2012-10-12 17:11:00,39.7,39.0,0.00,NNW,344,26.7,-999.0,100,0.06,,,-99.99,,2012-10-13 01:11:00,
2012-10-12 17:17:00,39.7,39.0,0.00,NNW,343,24.0,-999.0,100,0.09,,,-99.99,,2012-10-13 01:17:00,
2012-10-12 17:22:00,39.7,39.0,0.00,NNW,344,23.9,-999.0,100,0.11,,,-99.99,,2012-10-13 01:22:00,
2012-10-12 17:27:00,39.8,39.0,0.00,NNW,345,23.0,-999.0,100,0.14,,,-99.99,,2012-10-13 01:27:00,
2012-10-12 17:32:00,39.6,39.0,0.00,NNW,339,22.5,-999.0,100,0.16,,,-99.99,,2012-10-13 01:32:00,
2012-10-12 17:38:00,39.6,39.0,0.00,NNW,328,20.3,-999.0,100,0.20,,,-99.99,,2012-10-13 01:38:00,
2012-10-12 17:43:00,39.7,39.0,0.00,NNW,336,18.2,-999.0,100,0.23,,,-99.99,,2012-10-13 01:43:00,
2012-10-12 17:48:00,39.7,39.0,0.00,North,349,18.2,-999.0,100,0.25,,,-99.99,,2012-10-13 01:48:00,
2012-10-12 17:53:00,39.6,39.0,0.00,NNW,333,21.0,-999.0,100,0.28,,,-99.99,,2012-10-13 01:53:00,
2012-10-12 17:58:00,39.6,39.0,0.00,NNW,336,18.1,-999.0,100,0.32,,,-99.99,,2012-10-13 01:58:00,
2012-10-12 18:03:00,39.7,39.7,0.00,North,0,20.1,-999.0,100,0.02,,,-99.99,,2012-10-13 02:03:00,
2012-10-12 18:08:00,39.7,39.0,0.00,NNW,346,20.7,-999.0,100,0.05,,,-99.99,,2012-10-13 02:08:00,
2012-10-12 18:13:00,39.4,39.0,0.00,North,354,22.1,-999.0,100,0.08,,,-99.99,,2012-10-13 02:13:00,
2012-10-12 18:19:00,39.6,39.0,0.00,NNW,339,18.0,-999.0,100,0.10,,,-99.99,,2012-10-13 02:19:00,
2012-10-12 18:24:00,39.5,39.0,0.00,NNW,339,20.8,-999.0,100,0.12,,,-99.99,,2012-10-13 02:24:00,
2012-10-12 18:29:00,39.5,39.0,0.00,NNW,346,24.2,-999.0,100,0.15,,,-99.99,,2012-10-13 02:29:00,
2012-10-12 18:34:00,39.4,39.0,0.00,NNW,344,29.4,-999.0,100,0.17,,,-99.99,,2012-10-13 02:34:00,
2012-10-12 18:39:00,39.4,39.0,0.00,North,352,23.8,-999.0,100,0.20,,,-99.99,,2012-10-13 02:39:00,
2012-10-12 18:44:00,39.4,39.0,0.00,North,349,18.5,-999.0,100,0.21,,,-99.99,,2012-10-13 02:44:00,
2012-10-12 18:49:00,39.4,39.0,0.00,NNW,335,21.4,-999.0,100,0.24,,,-99.99,,2012-10-13 02:49:00,
2012-10-12 18:54:00,39.6,39.0,0.00,NNW,339,24.9,-999.0,100,0.25,,,-99.99,,2012-10-13 02:54:00,
2012-10-12 18:59:00,39.5,39.0,0.00,NNW,327,20.9,-999.0,100,0.27,,,-99.99,,2012-10-13 02:59:00,
2012-10-12 19:04:00,39.5,39.0,0.00,North,350,15.6,-999.0,100,0.01,,,-99.99,,2012-10-13 03:04:00,
2012-10-12 19:09:00,39.4,39.0,0.00,NNW,346,18.9,-999.0,100,0.03,,,-99.99,,2012-10-13 03:09:00,
2012-10-12 19:14:00,39.5,39.0,0.00,NNW,341,20.6,-999.0,100,0.05,,,-99.99,,2012-10-13 03:14:00,
2012-10-12 19:20:00,39.6,39.0,0.00,NNW,341,19.1,-999.0,100,0.08,,,-99.99,,2012-10-13 03:20:00,
2012-10-12 19:25:00,39.5,39.0,0.00,NNW,347,19.4,-999.0,100,0.10,,,-99.99,,2012-10-13 03:25:00,
2012-10-12 19:30:00,39.6,39.0,0.00,North,350,23.6,-999.0,100,0.12,,,-99.99,,2012-10-13 03:30:00,
2012-10-12 19:35:00,39.7,39.0,0.00,NNW,327,18.3,-999.0,100,0.14,,,-99.99,,2012-10-13 03:35:00,
2012-10-12 19:40:00,39.6,39.0,0.00,NNW,343,22.5,-999.0,100,0.17,,,-99.99,,2012-10-13 03:40:00,
2012-10-12 19:45:00,39.7,39.0,0.00,North,351,23.2,-999.0,100,0.20,,,-99.99,,2012-10-13 03:45:00,
2012-10-12 19:50:00,39.7,39.0,0.00,North,352,22.0,-999.0,100,0.23,,,-99.99,,2012-10-13 03:50:00,
2012-10-12 19:55:00,39.8,39.0,0.00,NNW,342,21.0,-999.0,100,0.26,,,-99.99,,2012-10-13 03:55:00,
2012-10-12 20:00:00,39.7,39.0,0.00,NNW,348,18.9,-999.0,100,0.00,,,-99.99,,2012-10-13 04:00:00,
2012-10-12 20:01:00,39.9,39.0,0.00,NNW,344,18.1,-999.0,100,0.00,,,-99.99,,2012-10-13 04:01:00,
2012-10-12 20:02:00,39.8,39.8,0.00,North,6,14.2,-999.0,100,0.00,,,-99.99,,2012-10-13 04:02:00,
2012-10-12 20:05:00,39.9,39.0,0.00,NNW,345,16.8,-999.0,100,0.01,,,-99.99,,2012-10-13 04:05:00,
2012-10-12 20:06:00,39.9,39.0,0.00,NNW,338,18.3,-999.0,100,0.02,,,-99.99,,2012-10-13 04:06:00,
2012-10-12 20:11:00,40.0,40.0,0.00,NNW,341,21.6,-999.0,100,0.04,,,-99.99,,2012-10-13 04:11:00,
2012-10-12 20:16:00,40.0,40.0,0.00,North,354,23.5,-999.0,100,0.06,,,-99.99,,2012-10-13 04:16:00,
2012-10-12 20:21:00,40.0,40.0,0.00,NNW,344,22.7,-999.0,100,0.08,,,-99.99,,2012-10-13 04:21:00,
2012-10-12 20:26:00,39.8,39.8,0.00,NNE,13,22.0,-999.0,100,0.11,,,-99.99,,2012-10-13 04:26:00,
2012-10-12 20:31:00,39.9,39.0,0.00,NNW,333,21.5,-999.0,100,0.13,,,-99.99,,2012-10-13 04:31:00,
2012-10-12 20:36:00,39.9,39.9,0.00,North,3,21.4,-999.0,100,0.15,,,-99.99,,2012-10-13 04:36:00,
2012-10-12 20:41:00,40.0,39.0,0.00,NNW,343,24.3,-999.0,100,0.17,,,-99.99,,2012-10-13 04:41:00,
2012-10-12 20:46:00,40.0,40.0,0.00,North,0,14.2,-999.0,100,0.19,,,-99.99,,2012-10-13 04:46:00,
2012-10-12 20:51:00,40.0,40.0,0.00,North,2,24.1,-999.0,100,0.22,,,-99.99,,2012-10-13 04:51:00,
2012-10-12 20:56:00,40.0,40.0,0.00,North,353,23.6,-999.0,100,0.25,,,-99.99,,2012-10-13 04:56:00,
2012-10-12 21:01:00,39.8,39.0,0.00,NNW,348,24.9,-999.0,100,0.01,,,-99.99,,2012-10-13 05:01:00,
2012-10-12 21:06:00,39.8,39.8,0.00,North,5,19.5,-999.0,100,0.03,,,-99.99,,2012-10-13 05:06:00,
2012-10-12 21:11:00,39.7,39.0,0.00,North,354,17.4,-999.0,100,0.07,,,-99.99,,2012-10-13 05:11:00,
2012-10-12 21:16:00,39.7,39.0,0.00,NNW,341,20.2,-999.0,100,0.09,,,-99.99,,2012-10-13 05:16:00,
2012-10-12 21:21:00,39.6,39.6,0.00,North,2,23.0,-999.0,100,0.11,,,-99.99,,2012-10-13 05:21:00,
2012-10-12 21:26:00,39.5,39.4,0.00,North,1,20.7,-999.0,100,0.12,,,-99.99,,2012-10-13 05:26:00,
2012-10-12 21:32:00,39.6,39.0,0.00,North,351,20.7,-999.0,100,0.16,,,-99.99,,2012-10-13 05:32:00,
2012-10-12 21:37:00,39.5,39.0,0.00,NNW,345,17.8,-999.0,100,0.19,,,-99.99,,2012-10-13 05:37:00,
2012-10-12 21:42:00,39.6,39.0,0.00,NNW,346,17.6,-999.0,100,0.22,,,-99.99,,2012-10-13 05:42:00,
2012-10-12 21:47:00,39.6,39.0,0.00,NNW,343,21.3,-999.0,100,0.24,,,-99.99,,2012-10-13 05:47:00,
2012-10-12 21:52:00,39.6,39.0,0.00,NNW,341,20.3,-999.0,100,0.27,,,-99.99,,2012-10-13 05:52:00,
2012-10-12 21:57:00,39.5,39.0,0.00,NNW,347,23.6,-999.0,100,0.30,,,-99.99,,2012-10-13 05:57:00,
2012-10-12 22:02:00,39.4,39.0,0.00,North,352,16.4,-999.0,100,0.01,,,-99.99,,2012-10-13 06:02:00,
2012-10-12 22:07:00,39.1,39.0,0.00,NNW,339,19.7,-999.0,100,0.03,,,-99.99,,2012-10-13 06:07:00,
2012-10-12 22:12:00,39.1,39.0,0.00,NNW,347,21.9,-999.0,100,0.05,,,-99.99,,2012-10-13 06:12:00,
2012-10-12 22:17:00,39.1,39.0,0.00,NNW,336,23.7,-999.0,100,0.07,,,-99.99,,2012-10-13 06:17:00,
2012-10-12 22:22:00,39.1,39.0,0.00,NNW,342,23.6,-999.0,100,0.10,,,-99.99,,2012-10-13 06:22:00,
2012-10-12 22:27:00,39.3,39.0,0.00,NNW,333,18.3,-999.0,100,0.12,,,-99.99,,2012-10-13 06:27:00,
2012-10-12 22:32:00,39.1,39.0,0.00,NNW,336,19.4,-999.0,100,0.14,,,-99.99,,2012-10-13 06:32:00,
2012-10-12 22:37:00,39.1,39.0,0.00,North,349,18.1,-999.0,100,0.16,,,-99.99,,2012-10-13 06:37:00,
2012-10-12 22:42:00,39.1,39.0,0.00,North,354,14.9,-999.0,100,0.17,,,-99.99,,2012-10-13 06:42:00,
2012-10-12 22:47:00,39.0,39.0,0.00,NNW,344,22.0,-999.0,100,0.19,,,-99.99,,2012-10-13 06:47:00,
2012-10-12 22:52:00,39.1,39.0,0.00,NNW,338,19.9,-999.0,100,0.21,,,-99.99,,2012-10-13 06:52:00,
2012-10-12 22:57:00,39.2,39.0,0.00,North,351,25.6,-999.0,100,0.24,,,-99.99,,2012-10-13 06:57:00,
2012-10-12 23:02:00,39.3,39.0,0.00,NW,323,17.4,-999.0,100,0.01,,,-99.99,,2012-10-13 07:02:00,
2012-10-12 23:07:00,39.3,39.0,0.00,NNW,345,17.0,-999.0,100,0.03,,,-99.99,,2012-10-13 07:07:00,
2012-10-12 23:12:00,39.2,39.0,0.00,NNW,344,18.1,-999.0,100,0.05,,,-99.99,,2012-10-13 07:12:00,
2012-10-12 23:17:00,39.2,39.0,0.00,North,349,17.7,-999.0,100,0.08,,,-99.99,,2012-10-13 07:17:00,
2012-10-12 23:22:00,39.1,39.0,0.00,NNW,341,24.4,-999.0,100,0.11,,,-99.99,,2012-10-13 07:22:00,
2012-10-12 23:27:00,39.3,39.0,0.00,NNW,341,13.9,-999.0,100,0.14,,,-99.99,,2012-10-13 07:27:00,
2012-10-12 23:32:00,39.2,39.0,0.00,NNW,342,21.5,-999.0,100,0.18,,,-99.99,,2012-10-13 07:32:00,
2012-10-12 23:37:00,39.3,39.0,0.00,North,349,13.0,-999.0,100,0.21,,,-99.99,,2012-10-13 07:37:00,
2012-10-12 23:42:00,39.3,39.3,0.00,North,0,14.0,-999.0,100,0.24,,,-99.99,,2012-10-13 07:42:00,
2012-10-12 23:47:00,39.6,39.0,0.00,NNW,338,18.1,-999.0,100,0.27,,,-99.99,,2012-10-13 07:47:00,
2012-10-12 23:52:00,39.5,39.0,0.00,North,352,15.8,-999.0,100,0.29,,,-99.99,,2012-10-13 07:52:00,
2012-10-12 23:57:00,39.5,39.0,0.00,NNW,346,18.0,-999.0,100,0.32,,,-99.99,,2012-10-13 07:57:00,